College Station, TX

12:57 AM CDT on March 26, 2017 (GMT -0500)
Easterwood

Weather History for KCLL - March, 2014

Change the Weather History Date:

Saturday, March 8, 2014

  Actual Average Record
Temperature  
Mean Temperature 54 °F 60 °F  
Max Temperature 65 °F 70 °F 92 °F (1911)
Min Temperature 43 °F 49 °F 25 °F (1932)
Degree Days  
Heating Degree Days 11 7  
Month to date heating degree days 146 61  
Since 1 July heating degree days 1863 1448  
Cooling Degree Days 0 1  
Month to date cooling degree days 7 8  
Year to date cooling degree days 28 36  
Growing Degree Days 4 (Base 50)    
Moisture  
Dew Point 50 °F    
Average Humidity 89    
Maximum Humidity 100    
Minimum Humidity 78    
Precipitation  
Precipitation 0.89 in 0.10 in 0.89 in (2014)
Month to date precipitation 1.35 0.81  
Year to date precipitation 3.53 6.90  
Sea Level Pressure  
Sea Level Pressure 30.09 in    
Wind  
Wind Speed 10 mph (North)    
Max Wind Speed 20 mph    
Max Gust Speed 27 mph    
Visibility 5 miles    
Events Rain    
T = Trace of Precipitation, MM = Missing Value Source: NWS Daily Summary

Daily Weather History Graph

Daily Weather History Graph

Search for Another Location

Airport or City:

Trip Planner

Search our weather history database for the weather conditions in past years. The results will help you decide how hot, cold, wet, or windy it might be!

Date:

Astronomy

Mar. 08, 2014 Rise Set
Actual Time 6:43 AM CST 6:29 PM CST
Civil Twilight 6:19 AM CST 6:53 PM CST
Nautical Twilight 5:51 AM CST 7:21 PM CST
Astronomical Twilight 5:23 AM CST 7:48 PM CST
Moon 11:51 AM CST (3/8) 1:02 AM CST (3/8)
Length of Visible Light 12h 33m
Length of Day
11h 45m
First Quarter, 52% of the Moon is Illuminated
Mar 8
First Quarter
Mar 16
Full
Mar 23
Last Quarter
Mar 30
New
Apr 7
First Quarter

Hourly Weather History & Observations

Time (CST) Temp. Windchill Dew Point Humidity Pressure Visibility Wind Dir Wind Speed Gust Speed Precip Events Conditions
12:53 AM 54.0 °F - 48.9 °F 83% 29.94 in 10.0 mi SSE 13.8 mph - N/A   Clear
1:53 AM 54.0 °F - 48.9 °F 83% 29.93 in 10.0 mi SSE 12.7 mph - N/A   Clear
2:53 AM 53.1 °F - 50.0 °F 89% 29.92 in 10.0 mi SSE 10.4 mph - N/A   Partly Cloudy
3:53 AM 53.1 °F - 50.0 °F 89% 29.92 in 10.0 mi SSE 6.9 mph - N/A   Mostly Cloudy
4:17 AM 53.1 °F - 50.0 °F 89% 29.92 in 10.0 mi SE 8.1 mph - N/A   Overcast
4:35 AM 53.1 °F - 50.0 °F 89% 29.92 in 10.0 mi SE 9.2 mph - N/A   Overcast
4:53 AM 53.1 °F - 50.0 °F 89% 29.93 in 10.0 mi SE 8.1 mph - N/A   Overcast
5:08 AM 54.0 °F - 50.0 °F 86% 29.94 in 10.0 mi SE 8.1 mph - N/A   Overcast
5:53 AM 54.0 °F - 51.1 °F 90% 29.94 in 10.0 mi SE 8.1 mph - N/A   Overcast
6:53 AM 55.0 °F - 51.1 °F 86% 29.98 in 10.0 mi ESE 5.8 mph - N/A   Overcast
7:43 AM 55.9 °F - 52.0 °F 87% 30.03 in 9.0 mi NE 5.8 mph - N/A   Overcast
7:53 AM 55.9 °F - 52.0 °F 87% 30.03 in 10.0 mi NE 6.9 mph - N/A   Overcast
8:53 AM 57.0 °F - 53.1 °F 87% 30.05 in 6.0 mi East 6.9 mph - N/A   Overcast
9:11 AM 57.0 °F - 53.1 °F 87% 30.06 in 9.0 mi East 8.1 mph - N/A   Overcast
9:53 AM 57.9 °F - 54.0 °F 87% 30.06 in 10.0 mi East 8.1 mph - 0.00 in   Overcast
10:53 AM 59.0 °F - 54.0 °F 83% 30.07 in 10.0 mi ESE 8.1 mph - N/A   Overcast
11:13 AM 62.1 °F - 55.0 °F 78% 30.07 in 10.0 mi SE 9.2 mph - N/A   Overcast
11:53 AM 63.0 °F - 55.9 °F 78% 30.06 in 10.0 mi SE 9.2 mph - N/A   Overcast
12:35 PM 64.0 °F - 57.0 °F 78% 30.06 in 10.0 mi SE 9.2 mph - N/A   Overcast
12:53 PM 64.0 °F - 57.0 °F 78% 30.05 in 10.0 mi SSE 6.9 mph - N/A   Overcast
1:53 PM 63.0 °F - 57.9 °F 84% 30.04 in 9.0 mi NW 4.6 mph - 0.00 in   Overcast
2:43 PM 61.0 °F - 57.0 °F 87% 30.04 in 5.0 mi NNW 6.9 mph - 0.00 in Rain Light Rain
2:53 PM 60.1 °F - 57.0 °F 90% 30.04 in 3.0 mi NNW 9.2 mph - 0.00 in Rain Light Rain
3:12 PM 57.9 °F - 57.0 °F 97% 30.05 in 3.0 mi NNW 13.8 mph - 0.01 in Rain Rain
3:36 PM 57.0 °F - 55.9 °F 96% 30.05 in 2.0 mi North 9.2 mph - 0.03 in Rain Rain
3:49 PM 57.2 °F - 55.4 °F 94% 30.06 in 3.0 mi NNW 12.7 mph - 0.04 in Rain Light Rain
3:53 PM 57.0 °F - 55.9 °F 96% 30.05 in 3.0 mi NNW 12.7 mph - 0.04 in Rain Light Rain
4:15 PM 57.0 °F - 55.9 °F 96% 30.07 in 2.0 mi North 12.7 mph - 0.01 in Rain Light Rain
4:28 PM 57.0 °F - 55.9 °F 96% 30.06 in 3.0 mi North 12.7 mph - 0.01 in Rain Light Rain
4:38 PM 55.0 °F - 54.0 °F 96% 30.07 in 2.0 mi NNW 17.3 mph 25.3 mph 0.01 in Rain Light Rain
4:46 PM 53.1 °F - 52.0 °F 96% 30.08 in 1.8 mi NNW 13.8 mph - 0.01 in Rain Light Rain
4:53 PM 52.0 °F - 51.1 °F 97% 30.08 in 1.8 mi NNW 13.8 mph - 0.01 in Rain Light Rain
5:07 PM 51.1 °F - 50.0 °F 96% 30.09 in 2.0 mi North 15.0 mph - 0.00 in Rain Light Rain
5:18 PM 51.1 °F - 48.9 °F 92% 30.09 in 1.8 mi North 16.1 mph 23.0 mph 0.00 in Rain Light Rain
5:53 PM 51.1 °F - 48.9 °F 92% 30.10 in 1.2 mi North 12.7 mph - 0.02 in Rain Rain
6:25 PM 50.0 °F - 48.9 °F 96% 30.13 in 2.5 mi NNW 13.8 mph - 0.06 in Rain Light Rain
6:41 PM 50.0 °F - 48.0 °F 93% 30.14 in 1.8 mi NNW 15.0 mph - 0.16 in Rain Heavy Rain
6:49 PM 50.0 °F - 48.2 °F 94% 30.13 in 2.0 mi North 13.8 mph - 0.17 in Rain Rain
6:53 PM 50.0 °F - 48.0 °F 93% 30.13 in 2.5 mi North 12.7 mph - 0.17 in Rain Light Rain
6:55 PM 50.0 °F - 48.0 °F 93% 30.13 in 3.0 mi North 15.0 mph - 0.00 in Rain Light Rain
7:11 PM 48.9 °F - 46.9 °F 93% 30.16 in 4.0 mi NNW 13.8 mph - 0.01 in Rain Light Rain
7:20 PM 48.0 °F - 46.0 °F 93% 30.17 in 4.0 mi NNW 13.8 mph - 0.02 in Rain Light Rain
7:27 PM 48.0 °F - 46.0 °F 93% 30.18 in 3.0 mi NW 12.7 mph 24.2 mph 0.03 in Rain Rain
7:32 PM 48.0 °F - 46.0 °F 93% 30.19 in 2.5 mi NNW 12.7 mph - 0.05 in Rain Heavy Rain
7:39 PM 48.0 °F - 46.0 °F 93% 30.19 in 2.0 mi NNW 13.8 mph - 0.08 in Rain Heavy Rain
7:53 PM 46.9 °F - 45.0 °F 93% 30.19 in 2.5 mi NNW 17.3 mph 26.5 mph 0.14 in Rain Heavy Rain
8:08 PM 46.9 °F - 45.0 °F 93% 30.19 in 3.0 mi NNW 13.8 mph - 0.01 in Rain Light Rain
8:24 PM 46.9 °F - 45.0 °F 93% 30.22 in 2.5 mi North 8.1 mph - 0.04 in Rain Rain
8:29 PM 46.0 °F 40.2 °F 45.0 °F 96% 30.20 in 1.8 mi North 12.7 mph - 0.11 in Rain Heavy Rain
8:48 PM 46.4 °F 41.1 °F 44.6 °F 93% 30.21 in 2.5 mi North 11.5 mph - 0.22 in Rain Rain
8:53 PM 46.0 °F 40.6 °F 45.0 °F 96% 30.21 in 2.0 mi NNE 11.5 mph - 0.27 in Rain Heavy Rain
9:14 PM 46.0 °F 40.6 °F 45.0 °F 96% 30.21 in 2.5 mi North 11.5 mph - 0.08 in Rain Rain
9:42 PM 46.0 °F 40.6 °F 45.0 °F 96% 30.22 in 3.0 mi North 11.5 mph - 0.15 in Rain Light Rain
9:53 PM 46.0 °F 41.0 °F 44.1 °F 93% 30.23 in 3.0 mi NNW 10.4 mph - 0.16 in Rain Light Rain
10:27 PM 45.0 °F 38.2 °F 44.1 °F 97% 30.24 in 2.5 mi North 15.0 mph - 0.02 in Rain Rain
10:37 PM 45.0 °F 40.1 °F 44.1 °F 97% 30.26 in 3.0 mi NNW 9.2 mph - 0.03 in Rain Light Rain
10:53 PM 45.0 °F 39.7 °F 43.0 °F 93% 30.27 in 3.0 mi NW 10.4 mph - 0.05 in Rain Light Rain
11:53 PM 43.0 °F 36.0 °F 42.1 °F 97% 30.26 in 4.0 mi NNW 13.8 mph - 0.03 in Rain Light Rain